Upington, South Africa

6:30 AM SAST on February 14, 2016 (GMT +0200)
Upington

Weather History for FAUP - December, 2012

Change the Weather History Date:

Sunday, December 30, 2012

  Actual Average Record
Temperature  
Mean Temperature 86 °F -  
Max Temperature 107 °F 93 °F 107 °F (2012)
Min Temperature 65 °F 66 °F 59 °F (1996)
Cooling Degree Days 21    
Growing Degree Days 36 (Base 50)    
Moisture  
Dew Point 42 °F    
Average Humidity 24    
Maximum Humidity 52    
Minimum Humidity 4    
Precipitation  
Precipitation 0.00 in 0.03 in - ()
Sea Level Pressure  
Sea Level Pressure 29.92 in    
Wind  
Wind Speed 5 mph ()    
Max Wind Speed 17 mph    
Max Gust Speed -    
Averages and records for this station are not official NWS values.
T = Trace of Precipitation, MM = Missing Value Source: Averaged Metar Reports

Daily Weather History Graph

Daily Weather History Graph

Search for Another Location

Airport or City:

Trip Planner

Search our weather history database for the weather conditions in past years. The results will help you decide how hot, cold, wet, or windy it might be!

Date:

Astronomy

Dec. 30, 2012 Rise Set
Actual Time 5:39 AM SAST 7:35 PM SAST
Civil Twilight 5:12 AM SAST 8:02 PM SAST
Nautical Twilight 4:40 AM SAST 8:34 PM SAST
Astronomical Twilight 4:06 AM SAST 9:08 PM SAST
Moon 8:55 PM SAST (12/30) 7:22 AM SAST (12/30)
Length of Visible Light 14h 49m
Length of Day
13h 55m
Waning Gibbous, 96% of the Moon is Illuminated
Dec 30
Waning Gibbous
Jan 5
Last Quarter
Jan 11
New
Jan 19
First Quarter
Jan 27
Full

Hourly Weather History & Observations

Time (SAST) Temp. Dew Point Humidity Pressure Visibility Wind Dir Wind Speed Gust Speed Precip Events Conditions
12:00 AM 71.6 °F 44.6 °F 38% 29.95 in - NW 4.6 mph - N/A   Unknown
1:00 AM 71.6 °F 44.6 °F 38% 29.95 in - SW 3.5 mph - N/A   Clear
2:00 AM 69.8 °F 46.4 °F 43% 29.95 in - SW 6.9 mph - N/A   Clear
3:00 AM 69.8 °F 44.6 °F 40% 29.95 in - SW 6.9 mph - N/A   Clear
4:00 AM 69.8 °F 46.4 °F 43% 29.95 in - SSW 4.6 mph - N/A   Clear
5:00 AM 67 °F 48 °F 40%  in 25 mi WSW 4.6 mph - -   Clear
5:00 AM 66.2 °F 48.2 °F 52% 29.95 in - WSW 3.5 mph - N/A   Clear
6:00 AM 66.2 °F 48.2 °F 52% 29.95 in - SW 4.6 mph - N/A   Clear
6:30 AM 71.6 °F 48.2 °F 43% 29.95 in - SW 3.5 mph - N/A   Clear
7:00 AM 73.4 °F 50.0 °F 44% 29.95 in - SSW 4.6 mph - N/A   Clear
7:43 AM 78.8 °F 48.2 °F 34% 29.98 in - South 4.6 mph - N/A   Clear
8:00 AM 79 °F 48 °F 23%  in 25 mi South 5.8 mph - -   Clear
8:00 AM 77.0 °F 48.2 °F 36% 29.98 in - South 4.6 mph - N/A   Clear
8:19 AM 80.6 °F 48.2 °F 32% 29.98 in - South 4.6 mph - N/A   Clear
9:00 AM 82.4 °F 46.4 °F 28% 29.98 in - South 2.3 mph - N/A   Clear
9:17 AM 87.8 °F 48.2 °F 25% 29.98 in - SE 2.3 mph - N/A   Clear
10:00 AM 89.6 °F 46.4 °F 22% 29.98 in - SE 2.3 mph - N/A   Clear
10:39 AM 95.0 °F 42.8 °F 16% 29.95 in - East 3.5 mph - N/A   Clear
11:00 AM 96 °F 40 °F 8%  in 25 mi ENE 2.3 mph - -   Clear
11:00 AM 95.0 °F 39.2 °F 14% 29.95 in - ENE 1.2 mph - N/A   Clear
12:00 PM 98.6 °F 35.6 °F 11% 29.95 in - WSW 4.6 mph - N/A   Clear
1:00 PM 100.4 °F 32.0 °F 9% 29.92 in - NW 3.5 mph - N/A   Clear
2:00 PM 104 °F 32 °F 4%  in 25 mi SW 8.1 mph - -   Clear
2:00 PM 104.0 °F 32.0 °F 8% 29.89 in - SW 6.9 mph - N/A   Clear
3:00 PM 102.2 °F 32.0 °F 9% 29.86 in - NW 4.6 mph - N/A   Clear
4:00 PM 102.2 °F 33.8 °F 9% 29.86 in - SW 12.7 mph - N/A   Clear
5:00 PM 101 °F 40 °F 6%  in 25 mi SSW 17.3 mph - -   Clear
5:00 PM 100.4 °F 39.2 °F 12% 29.83 in - SSW 17.3 mph - N/A   Clear
6:00 PM 98.6 °F 35.6 °F 11% 29.83 in - SSW 13.8 mph - N/A   Clear
7:00 PM 96.8 °F 37.4 °F 13% 29.83 in - SSW 8.1 mph - N/A   Clear
8:00 PM 90 °F 40 °F 9%  in 25 mi South 4.6 mph - -   Clear
8:00 PM 89.6 °F 39.2 °F 17% 29.86 in - South 3.5 mph - N/A   Clear
9:00 PM 87.8 °F 41.0 °F 19% 29.86 in - South 4.6 mph - N/A   Unknown
10:00 PM 82.4 °F 46.4 °F 28% 29.89 in - WSW 3.5 mph - N/A   Unknown
11:00 PM 82 °F 42 °F 15%  in - SSW 6.9 mph - -  
11:00 PM 80.6 °F 41.0 °F 24% 29.89 in - SSW 6.9 mph - N/A   Unknown